Weather in Kytlym

Russia / Sverdlovsk Oblast     59°30′00″N   59°12′07″E
temp.,
°C
wind,
m/s
gust,
m/s
humid.,
%
clouds,
%
prec.,
mm/h
press.,
hPa
HPBL,
m
13 april, tue
tue1323:00−2w22955 0.0 104121
02:00−2w22955 0.0 104020
05:00−2w22936 0.0 104132
08:00+2w238418 0.0 103994
11:00+6w34669 0.0 1038488
14:00+8wsw3557100 0.0 1035636
17:00+8wsw367197 0.0 1034624
20:00+3w3494100 0.0 103363
14 april, wed
wed1423:00+3w4887100 0.0 1031192
02:00+4w3794100 0.0 1029179
05:00+4w3699100 0.0 1029280
08:00+4w3597100 0.1 1029211
11:00+7w3682100 0.1 1028539
14:00+9w3976100 0.0 1027733
17:00+10w3107576 0.0 10251013
20:00+6wsw2392100 0.0 102655
15 april, thu
thu1523:00+4w3491100 0.0 102563
02:00+3w3591100 0.0 102482
05:00+3w4993100 0.0 1022238
08:00+6w4158898 0.0 1020578
11:00+11w4137073 0.0 10181007
14:00+13wsw6126816 0.0 10161422
17:00+10wsw31085100 0.3 10161001
20:00+8wnw2396100 0.9 101681
16 april, fri
fri1623:00+6nnw1293100 1.9 1017146
02:00+3ene2397100 0.4 1019502
05:00−1ene2496100 2.2 1022335
08:00−1nne128074 0.3 1024415
11:00+2ene2361100 0.4 10241243
14:00+3ene235099 0.2 10251566
17:00+3ne124899 0.3 10251508
20:000sw1176100 0.2 1026339
17 april, sat
sat1723:00−2ssw129457 1.0 1026101
02:00−3w219214 0.1 102632
05:00−4w228931 0.1 102536
08:00−1wnw3862100 0.0 10241238
11:00+1nw4747100 0.0 10232129
14:00+2nw4642100 0.0 10221913
17:00+1nw2448100 0.0 10221495
20:00−2ese1274100 0.1 1021498